owner,sensor,date,latitude,longitude,vertical_datum,sea_water_temperature,qcFlag
Chevron,ioos:station:wmo:42372:2,2022-09-01T00:05:00Z,27.7790,-90.5190,13.7,30.2,11111222
Chevron,ioos:station:wmo:42372:2,2022-09-01T00:15:00Z,27.7790,-90.5190,13.9,30.2,11111222
Chevron,ioos:station:wmo:42372:2,2022-09-01T00:26:00Z,27.7790,-90.5190,13.8,30.2,11111222
Chevron,ioos:station:wmo:42372:2,2022-09-01T00:36:00Z,27.7790,-90.5190,13.8,30.2,11111222
Chevron,ioos:station:wmo:42372:2,2022-09-01T00:46:00Z,27.7790,-90.5190,13.7,30.2,11111222
Chevron,ioos:station:wmo:42372:2,2022-09-01T00:56:00Z,27.7790,-90.5190,13.7,30.2,11111222
Chevron,ioos:station:wmo:42372:2,2022-09-01T01:06:00Z,27.7790,-90.5190,13.8,30.2,11111222
Chevron,ioos:station:wmo:42372:2,2022-09-01T01:16:00Z,27.7790,-90.5190,13.8,30.2,11111222
Chevron,ioos:station:wmo:42372:2,2022-09-01T01:26:00Z,27.7790,-90.5190,13.8,30.2,11111222
Chevron,ioos:station:wmo:42372:2,2022-09-01T01:36:00Z,27.7790,-90.5190,13.8,30.2,11111222
Chevron,ioos:station:wmo:42372:2,2022-09-01T01:46:00Z,27.7790,-90.5190,13.8,30.2,11111222
Chevron,ioos:station:wmo:42372:2,2022-09-01T01:56:00Z,27.7790,-90.5190,13.7,30.2,11111222
Chevron,ioos:station:wmo:42372:2,2022-09-01T02:06:00Z,27.7790,-90.5190,13.8,30.2,11111222
Chevron,ioos:station:wmo:42372:2,2022-09-01T02:16:00Z,27.7790,-90.5190,13.8,30.2,11111222
Chevron,ioos:station:wmo:42372:2,2022-09-01T02:26:00Z,27.7790,-90.5190,13.8,30.2,11111222
Chevron,ioos:station:wmo:42372:2,2022-09-01T02:36:00Z,27.7790,-90.5190,13.7,30.2,11111222
Chevron,ioos:station:wmo:42372:2,2022-09-01T02:46:00Z,27.7790,-90.5190,13.9,30.2,11111222
Chevron,ioos:station:wmo:42372:2,2022-09-01T02:56:00Z,27.7790,-90.5190,13.8,30.2,11111222
Chevron,ioos:station:wmo:42372:2,2022-09-01T03:06:00Z,27.7790,-90.5190,13.8,30.2,11111222
Chevron,ioos:station:wmo:42372:2,2022-09-01T03:16:00Z,27.7790,-90.5190,13.8,30.2,11111222
Chevron,ioos:station:wmo:42372:2,2022-09-01T03:26:00Z,27.7790,-90.5190,13.8,30.2,11111222
Chevron,ioos:station:wmo:42372:2,2022-09-01T03:36:00Z,27.7790,-90.5190,13.8,30.2,11111222
Chevron,ioos:station:wmo:42372:2,2022-09-01T03:46:00Z,27.7790,-90.5190,13.8,30.1,11111222
Chevron,ioos:station:wmo:42372:2,2022-09-01T03:56:00Z,27.7790,-90.5190,13.7,30.2,11111222
Chevron,ioos:station:wmo:42372:2,2022-09-01T04:06:00Z,27.7790,-90.5190,13.8,30.2,11111222
Chevron,ioos:station:wmo:42372:2,2022-09-01T04:16:00Z,27.7790,-90.5190,13.9,30.1,11111222
Chevron,ioos:station:wmo:42372:2,2022-09-01T04:26:00Z,27.7790,-90.5190,13.7,30.1,11111222
Chevron,ioos:station:wmo:42372:2,2022-09-01T04:36:00Z,27.7790,-90.5190,13.8,30.0,11111222
Chevron,ioos:station:wmo:42372:2,2022-09-01T04:46:00Z,27.7790,-90.5190,13.9,30.0,11111222
Chevron,ioos:station:wmo:42372:2,2022-09-01T04:56:00Z,27.7790,-90.5190,13.9,30.0,11111222
Chevron,ioos:station:wmo:42372:2,2022-09-01T05:06:00Z,27.7790,-90.5190,13.8,30.1,11111222
Chevron,ioos:station:wmo:42372:2,2022-09-01T05:16:00Z,27.7790,-90.5190,13.8,30.1,11111222
Chevron,ioos:station:wmo:42372:2,2022-09-01T05:26:00Z,27.7790,-90.5190,14.0,30.0,11111222
Chevron,ioos:station:wmo:42372:2,2022-09-01T05:36:00Z,27.7790,-90.5190,13.8,29.9,11111222
Chevron,ioos:station:wmo:42372:2,2022-09-01T05:46:00Z,27.7790,-90.5190,14.0,29.9,11111222
Chevron,ioos:station:wmo:42372:2,2022-09-01T05:56:00Z,27.7790,-90.5190,14.0,29.9,11111222
Chevron,ioos:station:wmo:42372:2,2022-09-01T06:06:00Z,27.7790,-90.5190,14.0,29.9,11111222
Chevron,ioos:station:wmo:42372:2,2022-09-01T06:16:00Z,27.7790,-90.5190,14.0,29.9,11111222
Chevron,ioos:station:wmo:42372:2,2022-09-01T06:26:00Z,27.7790,-90.5190,14.0,29.9,11111222
Chevron,ioos:station:wmo:42372:2,2022-09-01T06:36:00Z,27.7790,-90.5190,13.9,30.0,11111222
Chevron,ioos:station:wmo:42372:2,2022-09-01T06:46:00Z,27.7790,-90.5190,13.9,30.0,11111222
Chevron,ioos:station:wmo:42372:2,2022-09-01T06:56:00Z,27.7790,-90.5190,13.8,30.0,11111222
Chevron,ioos:station:wmo:42372:2,2022-09-01T07:06:00Z,27.7790,-90.5190,14.0,30.0,11111222
Chevron,ioos:station:wmo:42372:2,2022-09-01T07:16:00Z,27.7790,-90.5190,14.0,30.0,11111222
Chevron,ioos:station:wmo:42372:2,2022-09-01T07:26:00Z,27.7790,-90.5190,14.0,30.0,11111222
Chevron,ioos:station:wmo:42372:2,2022-09-01T07:36:00Z,27.7790,-90.5190,14.0,30.0,11111222
Chevron,ioos:station:wmo:42372:2,2022-09-01T07:46:00Z,27.7790,-90.5190,14.0,30.0,11111222
Chevron,ioos:station:wmo:42372:2,2022-09-01T07:56:00Z,27.7790,-90.5190,13.8,30.0,11111222
Chevron,ioos:station:wmo:42372:2,2022-09-01T08:06:00Z,27.7790,-90.5190,13.9,30.0,11111222
Chevron,ioos:station:wmo:42372:2,2022-09-01T08:16:00Z,27.7790,-90.5190,13.8,30.0,11111222
Chevron,ioos:station:wmo:42372:2,2022-09-01T08:26:00Z,27.7790,-90.5190,13.9,30.0,11111222
Chevron,ioos:station:wmo:42372:2,2022-09-01T08:36:00Z,27.7790,-90.5190,13.9,30.0,11111222
Chevron,ioos:station:wmo:42372:2,2022-09-01T08:46:00Z,27.7790,-90.5190,13.9,30.0,11111222
Chevron,ioos:station:wmo:42372:2,2022-09-01T08:56:00Z,27.7790,-90.5190,14.0,30.0,11111222
Chevron,ioos:station:wmo:42372:2,2022-09-01T09:06:00Z,27.7790,-90.5190,14.0,30.0,11111222
Chevron,ioos:station:wmo:42372:2,2022-09-01T09:16:00Z,27.7790,-90.5190,13.9,30.0,11111222
Chevron,ioos:station:wmo:42372:2,2022-09-01T09:26:00Z,27.7790,-90.5190,13.9,30.0,11111222
Chevron,ioos:station:wmo:42372:2,2022-09-01T09:36:00Z,27.7790,-90.5190,13.9,30.0,11111222
Chevron,ioos:station:wmo:42372:2,2022-09-01T09:46:00Z,27.7790,-90.5190,13.8,30.0,11111222
Chevron,ioos:station:wmo:42372:2,2022-09-01T09:56:00Z,27.7790,-90.5190,13.9,30.0,11111222
Chevron,ioos:station:wmo:42372:2,2022-09-01T10:06:00Z,27.7790,-90.5190,13.8,30.0,11111222
Chevron,ioos:station:wmo:42372:2,2022-09-01T10:16:00Z,27.7790,-90.5190,14.0,30.0,11111222
Chevron,ioos:station:wmo:42372:2,2022-09-01T10:26:00Z,27.7790,-90.5190,13.8,30.0,11111222
Chevron,ioos:station:wmo:42372:2,2022-09-01T10:36:00Z,27.7790,-90.5190,13.8,30.0,11111222
Chevron,ioos:station:wmo:42372:2,2022-09-01T10:46:00Z,27.7790,-90.5190,13.8,30.0,11111222
Chevron,ioos:station:wmo:42372:2,2022-09-01T10:56:00Z,27.7790,-90.5190,13.9,30.0,11111222
Chevron,ioos:station:wmo:42372:2,2022-09-01T11:06:00Z,27.7790,-90.5190,13.7,30.0,11111222
Chevron,ioos:station:wmo:42372:2,2022-09-01T11:16:00Z,27.7790,-90.5190,13.9,30.0,11111222
Chevron,ioos:station:wmo:42372:2,2022-09-01T11:26:00Z,27.7790,-90.5190,13.9,30.0,11111222
Chevron,ioos:station:wmo:42372:2,2022-09-01T11:36:00Z,27.7790,-90.5190,14.0,30.0,11111222
Chevron,ioos:station:wmo:42372:2,2022-09-01T11:46:00Z,27.7790,-90.5190,13.9,30.0,11111222
Chevron,ioos:station:wmo:42372:2,2022-09-01T11:56:00Z,27.7790,-90.5190,13.9,30.0,11111222
Chevron,ioos:station:wmo:42372:2,2022-09-01T12:06:00Z,27.7790,-90.5190,13.8,30.0,11111222
Chevron,ioos:station:wmo:42372:2,2022-09-01T12:16:00Z,27.7790,-90.5190,13.9,30.0,11111222
Chevron,ioos:station:wmo:42372:2,2022-09-01T12:26:00Z,27.7790,-90.5190,13.9,30.0,11111222
Chevron,ioos:station:wmo:42372:2,2022-09-01T12:36:00Z,27.7790,-90.5190,13.8,30.0,11111222
Chevron,ioos:station:wmo:42372:2,2022-09-01T12:46:00Z,27.7790,-90.5190,13.9,30.0,11111222
Chevron,ioos:station:wmo:42372:2,2022-09-01T12:56:00Z,27.7790,-90.5190,13.8,30.0,11111222
Chevron,ioos:station:wmo:42372:2,2022-09-01T13:06:00Z,27.7790,-90.5190,13.9,30.0,11111222
Chevron,ioos:station:wmo:42372:2,2022-09-01T13:16:00Z,27.7790,-90.5190,13.8,30.0,11111222
Chevron,ioos:station:wmo:42372:2,2022-09-01T13:26:00Z,27.7790,-90.5190,13.7,30.0,11111222
Chevron,ioos:station:wmo:42372:2,2022-09-01T13:46:00Z,27.7790,-90.5190,13.9,30.0,11111222
Chevron,ioos:station:wmo:42372:2,2022-09-01T13:56:00Z,27.7790,-90.5190,13.8,30.0,11111222
Chevron,ioos:station:wmo:42372:2,2022-09-01T14:06:00Z,27.7790,-90.5190,13.8,30.0,11111222
Chevron,ioos:station:wmo:42372:2,2022-09-01T14:16:00Z,27.7790,-90.5190,13.8,30.0,11111222
Chevron,ioos:station:wmo:42372:2,2022-09-01T14:45:00Z,27.7790,-90.5190,13.8,30.0,11111222
Chevron,ioos:station:wmo:42372:2,2022-09-01T15:01:00Z,27.7790,-90.5190,13.9,30.0,11111222
Chevron,ioos:station:wmo:42372:2,2022-09-01T15:11:00Z,27.7790,-90.5190,13.8,30.0,11111222
Chevron,ioos:station:wmo:42372:2,2022-09-01T15:21:00Z,27.7790,-90.5190,13.7,30.0,11111222
Chevron,ioos:station:wmo:42372:2,2022-09-01T15:31:00Z,27.7790,-90.5190,13.9,30.0,11111222
Chevron,ioos:station:wmo:42372:2,2022-09-01T15:41:00Z,27.7790,-90.5190,13.7,30.0,11111222
Chevron,ioos:station:wmo:42372:2,2022-09-01T15:51:00Z,27.7790,-90.5190,13.7,30.0,11111222
Chevron,ioos:station:wmo:42372:2,2022-09-01T16:01:00Z,27.7790,-90.5190,13.8,30.0,11111222
Chevron,ioos:station:wmo:42372:2,2022-09-01T16:11:00Z,27.7790,-90.5190,13.8,30.0,11111222
Chevron,ioos:station:wmo:42372:2,2022-09-01T16:21:00Z,27.7790,-90.5190,13.7,30.0,11111222
Chevron,ioos:station:wmo:42372:2,2022-09-01T16:31:00Z,27.7790,-90.5190,13.7,30.0,11111222
Chevron,ioos:station:wmo:42372:2,2022-09-01T16:41:00Z,27.7790,-90.5190,13.8,30.0,11111222
Chevron,ioos:station:wmo:42372:2,2022-09-01T16:51:00Z,27.7790,-90.5190,13.7,30.0,11111222
Chevron,ioos:station:wmo:42372:2,2022-09-01T17:01:00Z,27.7790,-90.5190,13.8,30.0,11111222
Chevron,ioos:station:wmo:42372:2,2022-09-01T17:11:00Z,27.7790,-90.5190,13.8,30.0,11111222
Chevron,ioos:station:wmo:42372:2,2022-09-01T17:21:00Z,27.7790,-90.5190,13.7,30.0,11111222
Chevron,ioos:station:wmo:42372:2,2022-09-01T17:31:00Z,27.7790,-90.5190,13.8,30.0,11111222
Chevron,ioos:station:wmo:42372:2,2022-09-01T17:41:00Z,27.7790,-90.5190,13.7,30.0,11111222
Chevron,ioos:station:wmo:42372:2,2022-09-01T17:51:00Z,27.7790,-90.5190,13.8,30.0,11111222
Chevron,ioos:station:wmo:42372:2,2022-09-01T18:01:00Z,27.7790,-90.5190,13.6,30.0,11111222
Chevron,ioos:station:wmo:42372:2,2022-09-01T18:11:00Z,27.7790,-90.5190,13.8,30.0,11111222
Chevron,ioos:station:wmo:42372:2,2022-09-01T18:21:00Z,27.7790,-90.5190,13.7,30.0,11111222
Chevron,ioos:station:wmo:42372:2,2022-09-01T18:31:00Z,27.7790,-90.5190,13.8,30.0,11111222
Chevron,ioos:station:wmo:42372:2,2022-09-01T18:41:00Z,27.7790,-90.5190,13.8,30.0,11111222
Chevron,ioos:station:wmo:42372:2,2022-09-01T18:51:00Z,27.7790,-90.5190,13.8,30.0,11111222
Chevron,ioos:station:wmo:42372:2,2022-09-01T19:01:00Z,27.7790,-90.5190,13.7,30.0,11111222
Chevron,ioos:station:wmo:42372:2,2022-09-01T19:11:00Z,27.7790,-90.5190,13.7,30.0,11111222
Chevron,ioos:station:wmo:42372:2,2022-09-01T19:21:00Z,27.7790,-90.5190,13.7,30.0,11111222
Chevron,ioos:station:wmo:42372:2,2022-09-01T19:31:00Z,27.7790,-90.5190,13.7,30.0,11111222
Chevron,ioos:station:wmo:42372:2,2022-09-01T19:42:00Z,27.7790,-90.5190,13.8,30.0,11111222
Chevron,ioos:station:wmo:42372:2,2022-09-01T19:52:00Z,27.7790,-90.5190,13.7,30.0,11111222
Chevron,ioos:station:wmo:42372:2,2022-09-01T20:02:00Z,27.7790,-90.5190,13.8,30.0,11111222
Chevron,ioos:station:wmo:42372:2,2022-09-01T20:12:00Z,27.7790,-90.5190,13.9,30.0,11111222
Chevron,ioos:station:wmo:42372:2,2022-09-01T20:22:00Z,27.7790,-90.5190,13.9,30.0,11111222
Chevron,ioos:station:wmo:42372:2,2022-09-01T20:32:00Z,27.7790,-90.5190,13.8,30.0,11111222
Chevron,ioos:station:wmo:42372:2,2022-09-01T20:42:00Z,27.7790,-90.5190,13.8,30.0,11111222
Chevron,ioos:station:wmo:42372:2,2022-09-01T20:52:00Z,27.7790,-90.5190,13.7,30.0,11111222
Chevron,ioos:station:wmo:42372:2,2022-09-01T21:02:00Z,27.7790,-90.5190,13.9,30.0,11111222
Chevron,ioos:station:wmo:42372:2,2022-09-01T21:12:00Z,27.7790,-90.5190,13.8,30.0,11111222
Chevron,ioos:station:wmo:42372:2,2022-09-01T21:22:00Z,27.7790,-90.5190,13.8,30.0,11111222
Chevron,ioos:station:wmo:42372:2,2022-09-01T21:32:00Z,27.7790,-90.5190,13.7,30.0,11111222
Chevron,ioos:station:wmo:42372:2,2022-09-01T21:42:00Z,27.7790,-90.5190,13.8,30.0,11111222
Chevron,ioos:station:wmo:42372:2,2022-09-01T21:52:00Z,27.7790,-90.5190,13.8,30.0,11111222
Chevron,ioos:station:wmo:42372:2,2022-09-01T22:02:00Z,27.7790,-90.5190,13.8,30.0,11111222
Chevron,ioos:station:wmo:42372:2,2022-09-01T22:12:00Z,27.7790,-90.5190,13.7,30.0,11111222
Chevron,ioos:station:wmo:42372:2,2022-09-01T22:22:00Z,27.7790,-90.5190,13.8,30.0,11111222
Chevron,ioos:station:wmo:42372:2,2022-09-01T22:32:00Z,27.7790,-90.5190,13.7,30.0,11111222
Chevron,ioos:station:wmo:42372:2,2022-09-01T22:42:00Z,27.7790,-90.5190,13.8,30.0,11111222
Chevron,ioos:station:wmo:42372:2,2022-09-01T22:52:00Z,27.7790,-90.5190,13.7,30.0,11111222
Chevron,ioos:station:wmo:42372:2,2022-09-01T23:02:00Z,27.7790,-90.5190,14.0,30.0,11111222
Chevron,ioos:station:wmo:42372:2,2022-09-01T23:12:00Z,27.7790,-90.5190,13.9,30.0,11111222
Chevron,ioos:station:wmo:42372:2,2022-09-01T23:22:00Z,27.7790,-90.5190,13.8,30.0,11111222
Chevron,ioos:station:wmo:42372:2,2022-09-01T23:32:00Z,27.7790,-90.5190,13.9,30.0,11111222
Chevron,ioos:station:wmo:42372:2,2022-09-01T23:42:00Z,27.7790,-90.5190,13.8,30.0,11111222
Chevron,ioos:station:wmo:42372:2,2022-09-01T23:52:00Z,27.7790,-90.5190,13.8,30.0,11111222
Chevron,ioos:station:wmo:42372:2,2022-09-02T00:02:00Z,27.7790,-90.5190,13.8,30.0,11111222
Chevron,ioos:station:wmo:42372:2,2022-09-02T00:12:00Z,27.7790,-90.5190,13.9,30.0,11111222
Chevron,ioos:station:wmo:42372:2,2022-09-02T00:22:00Z,27.7790,-90.5190,13.8,30.0,11111222
Chevron,ioos:station:wmo:42372:2,2022-09-02T00:32:00Z,27.7790,-90.5190,13.7,30.0,11111222
Chevron,ioos:station:wmo:42372:2,2022-09-02T00:42:00Z,27.7790,-90.5190,13.8,30.0,11111222
Chevron,ioos:station:wmo:42372:2,2022-09-02T00:52:00Z,27.7790,-90.5190,13.7,30.0,11111222
Chevron,ioos:station:wmo:42372:2,2022-09-02T01:02:00Z,27.7790,-90.5190,13.7,30.0,11111222
Chevron,ioos:station:wmo:42372:2,2022-09-02T01:12:00Z,27.7790,-90.5190,13.9,30.0,11111222
Chevron,ioos:station:wmo:42372:2,2022-09-02T01:22:00Z,27.7790,-90.5190,13.8,30.0,11111222
Chevron,ioos:station:wmo:42372:2,2022-09-02T01:32:00Z,27.7790,-90.5190,13.7,30.0,11111222
Chevron,ioos:station:wmo:42372:2,2022-09-02T01:42:00Z,27.7790,-90.5190,13.8,30.0,11111222
Chevron,ioos:station:wmo:42372:2,2022-09-02T01:52:00Z,27.7790,-90.5190,13.8,30.0,11111222
Chevron,ioos:station:wmo:42372:2,2022-09-02T02:02:00Z,27.7790,-90.5190,13.8,30.0,11111222
Chevron,ioos:station:wmo:42372:2,2022-09-02T02:12:00Z,27.7790,-90.5190,13.7,30.0,11111222
Chevron,ioos:station:wmo:42372:2,2022-09-02T02:22:00Z,27.7790,-90.5190,13.8,30.0,11111222
Chevron,ioos:station:wmo:42372:2,2022-09-02T02:32:00Z,27.7790,-90.5190,13.9,30.0,11111222
Chevron,ioos:station:wmo:42372:2,2022-09-02T02:42:00Z,27.7790,-90.5190,13.7,30.0,11111222
Chevron,ioos:station:wmo:42372:2,2022-09-02T02:52:00Z,27.7790,-90.5190,13.7,30.0,11111222
Chevron,ioos:station:wmo:42372:2,2022-09-02T03:02:00Z,27.7790,-90.5190,13.8,30.0,11111222
Chevron,ioos:station:wmo:42372:2,2022-09-02T03:12:00Z,27.7790,-90.5190,13.7,30.1,11111222
Chevron,ioos:station:wmo:42372:2,2022-09-02T03:22:00Z,27.7790,-90.5190,13.6,30.1,11111222
Chevron,ioos:station:wmo:42372:2,2022-09-02T03:32:00Z,27.7790,-90.5190,13.7,30.1,11111222
Chevron,ioos:station:wmo:42372:2,2022-09-02T03:42:00Z,27.7790,-90.5190,13.9,30.0,11111222
Chevron,ioos:station:wmo:42372:2,2022-09-02T03:52:00Z,27.7790,-90.5190,13.8,30.0,11111222
Chevron,ioos:station:wmo:42372:2,2022-09-02T04:02:00Z,27.7790,-90.5190,13.7,30.0,11111222
Chevron,ioos:station:wmo:42372:2,2022-09-02T04:12:00Z,27.7790,-90.5190,13.8,30.0,11111222
Chevron,ioos:station:wmo:42372:2,2022-09-02T04:22:00Z,27.7790,-90.5190,13.7,30.1,11111222
Chevron,ioos:station:wmo:42372:2,2022-09-02T04:32:00Z,27.7790,-90.5190,13.8,30.1,11111222
Chevron,ioos:station:wmo:42372:2,2022-09-02T04:42:00Z,27.7790,-90.5190,13.7,30.1,11111222
Chevron,ioos:station:wmo:42372:2,2022-09-02T04:52:00Z,27.7790,-90.5190,13.9,30.1,11111222
Chevron,ioos:station:wmo:42372:2,2022-09-02T05:02:00Z,27.7790,-90.5190,13.7,30.1,11111222
Chevron,ioos:station:wmo:42372:2,2022-09-02T05:12:00Z,27.7790,-90.5190,13.7,30.1,11111222
Chevron,ioos:station:wmo:42372:2,2022-09-02T05:22:00Z,27.7790,-90.5190,13.8,30.1,11111222
Chevron,ioos:station:wmo:42372:2,2022-09-02T05:32:00Z,27.7790,-90.5190,13.8,30.1,11111222
Chevron,ioos:station:wmo:42372:2,2022-09-02T05:42:00Z,27.7790,-90.5190,13.7,30.1,11111222
Chevron,ioos:station:wmo:42372:2,2022-09-02T05:52:00Z,27.7790,-90.5190,13.8,30.1,11111222
Chevron,ioos:station:wmo:42372:2,2022-09-02T06:02:00Z,27.7790,-90.5190,13.7,30.1,11111222
Chevron,ioos:station:wmo:42372:2,2022-09-02T06:12:00Z,27.7790,-90.5190,13.9,30.1,11111222
Chevron,ioos:station:wmo:42372:2,2022-09-02T06:22:00Z,27.7790,-90.5190,13.8,30.1,11111222
Chevron,ioos:station:wmo:42372:2,2022-09-02T06:32:00Z,27.7790,-90.5190,13.7,30.1,11111222
Chevron,ioos:station:wmo:42372:2,2022-09-02T06:42:00Z,27.7790,-90.5190,13.6,30.1,11111222
Chevron,ioos:station:wmo:42372:2,2022-09-02T06:52:00Z,27.7790,-90.5190,13.7,30.1,11111222
Chevron,ioos:station:wmo:42372:2,2022-09-02T07:02:00Z,27.7790,-90.5190,13.8,30.1,11111222
Chevron,ioos:station:wmo:42372:2,2022-09-02T07:12:00Z,27.7790,-90.5190,13.8,30.1,11111222
Chevron,ioos:station:wmo:42372:2,2022-09-02T07:22:00Z,27.7790,-90.5190,13.7,30.1,11111222
Chevron,ioos:station:wmo:42372:2,2022-09-02T07:32:00Z,27.7790,-90.5190,13.8,30.1,11111222
Chevron,ioos:station:wmo:42372:2,2022-09-02T07:42:00Z,27.7790,-90.5190,13.7,30.1,11111222
Chevron,ioos:station:wmo:42372:2,2022-09-02T07:52:00Z,27.7790,-90.5190,13.8,30.1,11111222
Chevron,ioos:station:wmo:42372:2,2022-09-02T08:02:00Z,27.7790,-90.5190,13.8,30.1,11111222
Chevron,ioos:station:wmo:42372:2,2022-09-02T08:12:00Z,27.7790,-90.5190,13.8,30.1,11111222
Chevron,ioos:station:wmo:42372:2,2022-09-02T08:22:00Z,27.7790,-90.5190,13.8,30.1,11111222
Chevron,ioos:station:wmo:42372:2,2022-09-02T08:32:00Z,27.7790,-90.5190,13.7,30.1,11111222
Chevron,ioos:station:wmo:42372:2,2022-09-02T08:42:00Z,27.7790,-90.5190,13.7,30.1,11111222
Chevron,ioos:station:wmo:42372:2,2022-09-02T08:52:00Z,27.7790,-90.5190,13.7,30.1,11111222
Chevron,ioos:station:wmo:42372:2,2022-09-02T09:02:00Z,27.7790,-90.5190,13.6,30.1,11111222
Chevron,ioos:station:wmo:42372:2,2022-09-02T09:12:00Z,27.7790,-90.5190,13.8,30.1,11111222
Chevron,ioos:station:wmo:42372:2,2022-09-02T09:22:00Z,27.7790,-90.5190,13.7,30.1,11111222
Chevron,ioos:station:wmo:42372:2,2022-09-02T09:32:00Z,27.7790,-90.5190,13.6,30.1,11111222
Chevron,ioos:station:wmo:42372:2,2022-09-02T09:42:00Z,27.7790,-90.5190,13.7,30.0,11111222
Chevron,ioos:station:wmo:42372:2,2022-09-02T09:52:00Z,27.7790,-90.5190,13.8,30.0,11111222
Chevron,ioos:station:wmo:42372:2,2022-09-02T10:02:00Z,27.7790,-90.5190,13.8,30.0,11111222
Chevron,ioos:station:wmo:42372:2,2022-09-02T10:12:00Z,27.7790,-90.5190,13.7,30.0,11111222
Chevron,ioos:station:wmo:42372:2,2022-09-02T10:22:00Z,27.7790,-90.5190,13.6,30.0,11111222
Chevron,ioos:station:wmo:42372:2,2022-09-02T10:32:00Z,27.7790,-90.5190,13.7,30.0,11111222
Chevron,ioos:station:wmo:42372:2,2022-09-02T10:42:00Z,27.7790,-90.5190,13.6,30.0,11111222
Chevron,ioos:station:wmo:42372:2,2022-09-02T10:52:00Z,27.7790,-90.5190,13.8,30.0,11111222
Chevron,ioos:station:wmo:42372:2,2022-09-02T11:02:00Z,27.7790,-90.5190,13.7,30.0,11111222
Chevron,ioos:station:wmo:42372:2,2022-09-02T11:12:00Z,27.7790,-90.5190,13.7,29.9,11111222
Chevron,ioos:station:wmo:42372:2,2022-09-02T11:22:00Z,27.7790,-90.5190,13.8,30.0,11111222
Chevron,ioos:station:wmo:42372:2,2022-09-02T11:32:00Z,27.7790,-90.5190,13.6,30.0,11111222
Chevron,ioos:station:wmo:42372:2,2022-09-02T11:42:00Z,27.7790,-90.5190,13.5,30.0,11111222
Chevron,ioos:station:wmo:42372:2,2022-09-02T11:52:00Z,27.7790,-90.5190,13.6,30.0,11111222
Chevron,ioos:station:wmo:42372:2,2022-09-02T12:02:00Z,27.7790,-90.5190,13.6,30.0,11111222
Chevron,ioos:station:wmo:42372:2,2022-09-02T12:12:00Z,27.7790,-90.5190,13.6,29.9,11111222
Chevron,ioos:station:wmo:42372:2,2022-09-02T12:22:00Z,27.7790,-90.5190,13.6,29.9,11111222
Chevron,ioos:station:wmo:42372:2,2022-09-02T12:32:00Z,27.7790,-90.5190,13.7,29.9,11111222
Chevron,ioos:station:wmo:42372:2,2022-09-02T12:42:00Z,27.7790,-90.5190,13.6,29.9,11111222
Chevron,ioos:station:wmo:42372:2,2022-09-02T12:52:00Z,27.7790,-90.5190,13.6,29.9,11111222
Chevron,ioos:station:wmo:42372:2,2022-09-02T13:02:00Z,27.7790,-90.5190,13.7,29.9,11111222
Chevron,ioos:station:wmo:42372:2,2022-09-02T13:12:00Z,27.7790,-90.5190,13.6,29.9,11111222
Chevron,ioos:station:wmo:42372:2,2022-09-02T13:22:00Z,27.7790,-90.5190,13.6,29.9,11111222
Chevron,ioos:station:wmo:42372:2,2022-09-02T13:32:00Z,27.7790,-90.5190,13.5,29.9,11111222
Chevron,ioos:station:wmo:42372:2,2022-09-02T13:42:00Z,27.7790,-90.5190,13.6,29.9,11111222
Chevron,ioos:station:wmo:42372:2,2022-09-02T13:52:00Z,27.7790,-90.5190,13.7,29.9,11111222
Chevron,ioos:station:wmo:42372:2,2022-09-02T14:02:00Z,27.7790,-90.5190,13.8,29.9,11111222
Chevron,ioos:station:wmo:42372:2,2022-09-02T14:12:00Z,27.7790,-90.5190,13.5,29.9,11111222
Chevron,ioos:station:wmo:42372:2,2022-09-02T14:22:00Z,27.7790,-90.5190,13.6,29.9,11111222
Chevron,ioos:station:wmo:42372:2,2022-09-02T14:32:00Z,27.7790,-90.5190,13.6,29.9,11111222
Chevron,ioos:station:wmo:42372:2,2022-09-02T14:42:00Z,27.7790,-90.5190,13.6,29.9,11111222
Chevron,ioos:station:wmo:42372:2,2022-09-02T14:52:00Z,27.7790,-90.5190,13.5,29.9,11111222
Chevron,ioos:station:wmo:42372:2,2022-09-02T15:02:00Z,27.7790,-90.5190,13.6,30.0,11111222
Chevron,ioos:station:wmo:42372:2,2022-09-02T15:12:00Z,27.7790,-90.5190,13.4,30.0,11111222
Chevron,ioos:station:wmo:42372:2,2022-09-02T15:22:00Z,27.7790,-90.5190,13.5,30.0,11111222
Chevron,ioos:station:wmo:42372:2,2022-09-02T15:32:00Z,27.7790,-90.5190,13.4,30.0,11111222
Chevron,ioos:station:wmo:42372:2,2022-09-02T15:42:00Z,27.7790,-90.5190,13.5,30.0,11111222
Chevron,ioos:station:wmo:42372:2,2022-09-02T15:52:00Z,27.7790,-90.5190,13.5,30.0,11111222
Chevron,ioos:station:wmo:42372:2,2022-09-02T16:02:00Z,27.7790,-90.5190,13.5,30.0,11111222
Chevron,ioos:station:wmo:42372:2,2022-09-02T16:12:00Z,27.7790,-90.5190,13.5,30.0,11111222
Chevron,ioos:station:wmo:42372:2,2022-09-02T16:22:00Z,27.7790,-90.5190,13.5,30.0,11111222
Chevron,ioos:station:wmo:42372:2,2022-09-02T16:32:00Z,27.7790,-90.5190,13.6,30.0,11111222
Chevron,ioos:station:wmo:42372:2,2022-09-02T16:42:00Z,27.7790,-90.5190,13.6,30.0,11111222
Chevron,ioos:station:wmo:42372:2,2022-09-02T16:52:00Z,27.7790,-90.5190,13.4,30.0,11111222
Chevron,ioos:station:wmo:42372:2,2022-09-02T17:02:00Z,27.7790,-90.5190,13.6,30.0,11111222
Chevron,ioos:station:wmo:42372:2,2022-09-02T17:12:00Z,27.7790,-90.5190,13.4,30.0,11111222
Chevron,ioos:station:wmo:42372:2,2022-09-02T17:22:00Z,27.7790,-90.5190,13.6,29.9,11111222
Chevron,ioos:station:wmo:42372:2,2022-09-02T17:32:00Z,27.7790,-90.5190,13.5,29.9,11111222
Chevron,ioos:station:wmo:42372:2,2022-09-02T17:42:00Z,27.7790,-90.5190,13.5,29.9,11111222
Chevron,ioos:station:wmo:42372:2,2022-09-02T17:52:00Z,27.7790,-90.5190,13.4,29.9,11111222
Chevron,ioos:station:wmo:42372:2,2022-09-02T18:02:00Z,27.7790,-90.5190,13.5,29.9,11111222
Chevron,ioos:station:wmo:42372:2,2022-09-02T18:12:00Z,27.7790,-90.5190,13.6,29.9,11111222
Chevron,ioos:station:wmo:42372:2,2022-09-02T18:22:00Z,27.7790,-90.5190,13.4,29.9,11111222
Chevron,ioos:station:wmo:42372:2,2022-09-02T18:32:00Z,27.7790,-90.5190,13.5,29.9,11111222
Chevron,ioos:station:wmo:42372:2,2022-09-02T18:42:00Z,27.7790,-90.5190,13.4,29.9,11111222
Chevron,ioos:station:wmo:42372:2,2022-09-02T18:52:00Z,27.7790,-90.5190,13.4,29.9,11111222
Chevron,ioos:station:wmo:42372:2,2022-09-02T19:02:00Z,27.7790,-90.5190,13.4,30.0,11111222
Chevron,ioos:station:wmo:42372:2,2022-09-02T19:12:00Z,27.7790,-90.5190,13.5,30.0,11111222
Chevron,ioos:station:wmo:42372:2,2022-09-02T19:22:00Z,27.7790,-90.5190,13.5,30.1,11111222
Chevron,ioos:station:wmo:42372:2,2022-09-02T19:32:00Z,27.7790,-90.5190,13.5,30.1,11111222
Chevron,ioos:station:wmo:42372:2,2022-09-02T19:42:00Z,27.7790,-90.5190,13.4,30.1,11111222
Chevron,ioos:station:wmo:42372:2,2022-09-02T19:52:00Z,27.7790,-90.5190,13.3,30.0,11111222
Chevron,ioos:station:wmo:42372:2,2022-09-02T20:02:00Z,27.7790,-90.5190,13.4,30.0,11111222
Chevron,ioos:station:wmo:42372:2,2022-09-02T20:12:00Z,27.7790,-90.5190,13.5,30.0,11111222